Home   Weather   Patna   Past weeks

Flag for India Past Weather in Patna, Bihar, India — Yesterday and Last 2 Weeks

Now
68 °F

Haze.


Feels Like: 68 °F
Forecast: 53 / 80 °F
Wind: 3 mph from North

Location: Patna Airport

Current Time: Jan 24, 2017 at 10:49:00 am

Latest Report: Jan 24, 2017 at 10:00 am


Visibility: 2 mi

Pressure: 30.12 "Hg

Humidity: 64%

Dew Point: 55 °F

Location of PatnaLocation

Past Weather in Patna — Graph

°F

Patna Temperature Yesterday

Maximum temperature yesterday: 79 °F (at 2:00 pm)
Minimum temperature yesterday: 54 °F (at 5:30 am)
Average temperature yesterday: 69 °F

High & Low Weather Summary for the Past Weeks

 TemperatureHumidityPressure
High79 °F (Jan 17, 1:00 pm)100% (Jan 10, 5:30 am)30.18 "Hg (Jan 10, 5:30 am)
Low43 °F (Jan 12, 7:30 am)32% (Jan 13, 12:30 pm)29.83 "Hg (Jan 9, 2:30 pm)
Average65 °F62%30.01 "Hg
* Reported Jan 9 9:30 am — Jan 24 9:30 am, Patna, Weather by CustomWeather, © 2017

Note: Actual official high and low records may vary slightly from our data, if they occured in-between our weather recording intervals... More about our weather records

Advertising

Patna Weather History for the Previous 24 Hours

Scroll right to see more
 ConditionsComfort  
Time TempWeatherWind HumidityBarometerVisibility
9:30 am
Tue, Jan 24
64 °FHaze.6 mph73%30.12 "Hg1 mi
9:00 am63 °FHaze.6 mph77%30.12 "Hg1 mi
7:30 am57 °FFog.No wind88%30.07 "Hg1 mi
8:30 pm
Mon, Jan 23
64 °FHaze.3 mph83%30.01 "Hg2 mi
8:00 pm66 °FHaze.5 mph78%30.01 "Hg2 mi
7:30 pm66 °FHaze.3 mph78%29.98 "Hg2 mi
7:00 pm68 °FHaze.5 mph78%29.98 "Hg2 mi
6:30 pm70 °FHaze.3 mph69%29.98 "Hg2 mi
6:00 pm72 °FHaze.5 mph65%29.95 "Hg2 mi
5:30 pm73 °FHaze.6 mph57%29.95 "Hg3 mi
5:00 pm75 °FHaze.7 mph54%29.95 "Hg3 mi
4:30 pm77 °FHaze.9 mph51%29.95 "Hg3 mi
4:00 pm79 °FHaze.7 mph45%29.95 "Hg3 mi
3:30 pm79 °FHaze.9 mph51%29.95 "Hg3 mi
3:00 pm79 °FHaze.9 mph51%29.95 "Hg3 mi
2:30 pm79 °FHaze.9 mph45%29.98 "Hg3 mi
2:00 pm79 °FHaze.12 mph51%29.98 "Hg3 mi
1:30 pm77 °FHaze.7 mph54%30.01 "Hg3 mi
1:00 pm77 °FHaze.7 mph51%30.01 "Hg3 mi
12:30 pm75 °FHaze.3 mph50%30.04 "Hg2 mi
12:00 pm73 °FHaze.9 mph53%30.07 "Hg2 mi
11:30 am70 °FHaze.5 mph60%30.09 "Hg2 mi
11:00 am66 °FHaze.7 mph68%30.09 "Hg2 mi
10:30 am63 °FHaze.6 mph68%30.09 "Hg1 mi
10:00 am63 °FHaze.7 mph68%30.12 "Hg1 mi
Weather by CustomWeather, © 2017

See weather overviewHow to use our weather pages